Погода в Раздане

Армения     40°30′59″N   44°45′22″E
темп.,
°C
ветер,
м/с
пор.,
м/с
влажн.,
%
обл.,
%
осадки,
мм/ч
давл.,
гПа
погр.,
м
13 июня, вс
вс1301:00+8св459775 0.0 101590
04:00+8св349615 0.1 101471
07:00+10св349111 0.0 1013153
10:00+16ссв12610 0.4 1011851
13:00+20юз46423 0.5 10082281
16:00+21зюз593390 0.6 10073334
19:00+13ююз6777100 1.8 1012441
22:00+8св228787 4.4 101524
14 июня, пн
пн1401:00+7всв22830 0.1 101514
04:00+8в11780 0.1 101411
07:00+11ю11750 0.0 101445
10:00+17юз46500 0.0 10121220
13:00+20юз45390 0.0 10121747
16:00+21юз35350 0.0 10101956
19:00+20юв11520 0.0 101018
22:00+12всв33770 0.0 101331
15 июня, вт
вт1501:00+11св22720 0.0 101322
04:00+10всв11710 0.0 101312
07:00+12в22670 0.0 101347
10:00+20зюз253628 0.0 10101173
13:00+22зюз511310 0.0 10102610
16:00+23зюз47272 0.0 10082875
19:00+22зюз11504 0.0 100815
22:00+13всв33720 0.0 101328
16 июня, ср
ср1601:00+12всв33680 0.0 101331
04:00+11всв34730 0.0 101339
07:00+13св34750 0.0 101398
10:00+21св33500 0.0 1010858
13:00+24с05352 0.0 10082329
16:00+25в24351 0.3 10072164
19:00+20св45710 0.3 1010427
22:00+13св45960 0.3 101387
17 июня, чт
чт1701:00+12св44900 0.0 101358
04:00+11всв34880 0.0 101243
07:00+14св34820 0.0 1011100
10:00+21св22520 0.0 1007723
13:00+25ююз58300 0.0 10062284
16:00+26юз48262 0.1 10053207
19:00+19св56705 0.3 1008377
22:00+13св34940 0.5 101360